Regional Weather Roundup
Issued by NWS

Home | Current Version | Previous Version | Graphics & Text | Print | Product List | Glossary On
Versions: 1 2 3 4 5 6 7 8 9 10 11 12 13 14 15 16 17 18 19 20 21 22 23 24 25 26 27 28 29 30 31 32 33 34 35 36 37 38 39 40 41 42 43 44 45 46 47 48 49 50
000
ASUS43 KLOT 231900
RWRIL

ILLINOIS REGIONAL WEATHER ROUNDUP
NATIONAL WEATHER SERVICE CHICAGO/ROMEOVILLE IL
200 PM CDT WED APR 23 2014

NOTE: "FAIR" INDICATES FEW OR NO CLOUDS BELOW 12,000 FEET WITH NO
SIGNIFICANT WEATHER AND/OR OBSTRUCTIONS TO VISIBILITY.

* THESE STATIONS ARE NOT UNDER NWS QUALITY CONTROL. THEY ALSO MAY NOT
  REPORT WEATHER SUCH AS PRECIPITATION OR FOG.

ILZ001-002-007-009-015-016-024-232000-
NORTHWEST ILLINOIS

CITY           SKY/WX    TMP DP  RH WIND       PRES   REMARKS
MOLINE         PTSUNNY   57  28  33 SE10      30.09F
STERLING*      CLOUDY    54  30  40 SE8G16    30.11F
$$

ILZ003-004-008-010-011-017-018-232000-
NORTH CENTRAL ILLINOIS

CITY           SKY/WX    TMP DP  RH WIND       PRES   REMARKS
ROCKFORD       CLOUDY    54  27  35 VRB3      30.14F
$$

ILZ005-006-012>014-019>023-232000-
NORTHEAST ILLINOIS

CITY           SKY/WX    TMP DP  RH WIND       PRES   REMARKS
CHICAGO-OHARE  PTSUNNY   50  25  37 E10G16    30.15F
CHICAGO-MIDWAY PTSUNNY   50  28  42 N13       30.15F
AURORA         MOSUNNY   54  27  35 E8        30.14F
WAUKEGAN       SUNNY     44  24  45 MISG      30.17F
DUPAGE AIRPORT MOSUNNY   53  27  36 E5G17     30.13F
WHEELING       SUNNY     47  26  44 E9        30.18F
NORTHERLY ISL    N/A     43  31  63 N13         N/A
$$

LMZ740>746-232000-
SOUTHERN LAKE MICHIGAN

STATION/POSITION SKY/WX   TEMP    WIND        PRES    VSBY  WAVE
                          AIR SEA DIR/SP/G                  HT/PER
                          (F)     (DEG/KT/KT) (MB)    (MI)  (FT/S)
WAUKEGAN HARBOR            37      50/  9/ 10 1023.4F
HARRISON CRIB              37     360/ 10/ 12   N/A
BURNHAM HARBOR             42      20/  9/ 11   N/A
CALUMET HARBOR             41     340/  8/ 12 1022.7F
MICHIGAN CITY              38     320/ 12/ 14   N/A
$$

ILZ025>027-034>036-040-047-049-050-058-095>099-232000-
WEST-CENTRAL ILLINOIS

CITY           SKY/WX    TMP DP  RH WIND       PRES   REMARKS
QUINCY         PTSUNNY   59  33  37 SE15      30.05
$$

ILZ028>032-037-038-041>044-048-051>054-059>061-232000-
CENTRAL ILLINOIS

CITY           SKY/WX    TMP DP  RH WIND       PRES   REMARKS
DECATUR        SUNNY     61  28  28 E9        30.10F
PEORIA         MOSUNNY   60  28  29 VRB5      30.09F
SPRINGFIELD    SUNNY     62  32  32 E7        30.09F
TAYLORVILLE    NOT AVBL
$$

ILZ033-039-045-046-055>057-062-063-232000-
EAST-CENTRAL ILLINOIS

CITY           SKY/WX    TMP DP  RH WIND       PRES   REMARKS
CHAMPAIGN      SUNNY     59  29  31 NE8       30.10F
MATTOON        SUNNY     57  28  33 VRB5      30.09F
$$

ILZ079-100>102-232000-
SOUTHWEST ILLINOIS

CITY           SKY/WX    TMP DP  RH WIND       PRES   REMARKS
ALTON          MOSUNNY   61  30  31 E13       30.07F
BELLEVILLE     MOSUNNY   62  37  38 SE8       30.07F
CAHOKIA*       SUNNY     64  39  39 SE13      30.06F
$$

ILZ064>066-069>071-074>076-080>082-084>086-088>090-092>094-232000-
SOUTH-CENTRAL ILLINOIS

CITY           SKY/WX    TMP DP  RH WIND       PRES   REMARKS
CARBONDALE     SUNNY     64  41  42 VRB5      30.07
MARION         MOSUNNY   64  34  32 SE14      30.08F
MT. VERNON     SUNNY     63  34  34 E7        30.10F
$$

ILZ067-068-072-073-078-083-087-091-232000-
SOUTHEAST ILLINOIS

CITY           SKY/WX    TMP DP  RH WIND       PRES   REMARKS
$$

ABBREVIATIONS USED IN REMARKS
   TC - TEMPERATURE IN CELSIUS
  WCI - WIND CHILL INDEX
   HX - HEAT INDEX
  VSB - VISIBILITY
$$




USA.gov is the U.S. government's official web portal to all federal, state and local government web resources and services.